Location: Darmstadt
(49.8706°N, 8.6494°E)
Time: 07:14:30
(UTC+01:00)

USA 215 - Pass Details

Date: 31 October 2020
Orbit: 1102 x 1106 km, 123.0° (Epoch: 28 November)

Event Time Altitude Azimuth Distance (km) Brightness Sun altitude
Exits shadow 21:15:58 42° 299° (WNW) 1,539 4.2 -40.2°
Drops below altitude 10° 21:20:01 10° 302° (WNW) 2,966 6.2 -40.8°
Sets 21:22:30 0° 303° (WNW) 3,926 7.0 -41.1°
